Weather History for KDPL - March, 2013

Change the Weather History Date:

Thursday, March 28, 2013

  Actual Average (KGSB) Record (KGSB)
Temperature  
Mean Temperature 42 °F -  
Max Temperature 55 °F 67 °F 86 °F (2007)
Min Temperature 30 °F 46 °F 28 °F (2001)
Degree Days  
Heating Degree Days 22    
Moisture  
Dew Point 25 °F    
Average Humidity 53    
Maximum Humidity 86    
Minimum Humidity 27    
Precipitation  
Precipitation 0.00 in - - ()
Sea Level Pressure  
Sea Level Pressure 30.22 in    
Wind  
Wind Speed 4 mph (NW)    
Max Wind Speed 15 mph    
Max Gust Speed 23 mph    
Visibility 10 miles    
Events      
Averages and records for this station are not official NWS values.
T = Trace of Precipitation, MM = Missing Value Source: NWS Daily Summary

Daily Weather History Graph

Daily Weather History Graph

Search for Another Location

Airport or City:

Trip Planner

Search our weather history database for the weather conditions in past years. The results will help you decide how hot, cold, wet, or windy it might be!

Date:

Astronomy

Mar. 28, 2013 Rise Set
Actual Time 7:04 AM EDT 7:30 PM EDT
Civil Twilight 6:38 AM EDT 7:55 PM EDT
Nautical Twilight 6:08 AM EDT 8:25 PM EDT
Astronomical Twilight 5:38 AM EDT 8:55 PM EDT
Moon 9:14 PM EDT (3/28) 7:35 AM EDT (3/28)
Length of Visible Light 13h 17m
Length of Day
12h 26m
Full, 98% of the Moon is Illuminated
Mar 28
Full
Apr 3
Last Quarter
Apr 10
New
Apr 18
First Quarter
Apr 25
Full

Hourly Weather History & Observations

Time (EDT) Temp. Windchill Dew Point Humidity Pressure Visibility Wind Dir Wind Speed Gust Speed Precip Events Conditions
12:15 AM 33.8 °F - 26.1 °F 73% 30.23 in 10.0 mi Calm Calm - N/A   Clear
12:35 AM 32.4 °F - 27.3 °F 82% 30.23 in 10.0 mi Calm Calm - N/A   Clear
12:55 AM 31.8 °F - 27.0 °F 82% 30.22 in 10.0 mi Calm Calm - N/A   Clear
1:15 AM 36.3 °F 33.7 °F 24.3 °F 62% 30.23 in 10.0 mi NW 3.5 mph - N/A   Clear
1:35 AM 37.0 °F 34.5 °F 23.9 °F 59% 30.23 in 10.0 mi NNW 3.5 mph - N/A   Clear
1:55 AM 36.1 °F - 23.9 °F 61% 30.22 in 10.0 mi Calm Calm - N/A   Clear
2:15 AM 35.2 °F - 24.3 °F 64% 30.22 in 10.0 mi Calm Calm - N/A   Clear
2:35 AM 33.4 °F - 24.8 °F 71% 30.22 in 10.0 mi Calm Calm - N/A   Clear
2:55 AM 37.2 °F 33.6 °F 23.9 °F 59% 30.22 in 10.0 mi NW 4.6 mph - N/A   Clear
3:35 AM 36.7 °F 34.1 °F 24.3 °F 61% 30.22 in 10.0 mi WNW 3.5 mph - N/A   Clear
3:55 AM 36.0 °F 33.3 °F 24.3 °F 63% 30.21 in 10.0 mi WNW 3.5 mph - N/A   Clear
4:15 AM 35.6 °F - 24.6 °F 64% 30.21 in 10.0 mi Calm Calm - N/A   Clear
4:35 AM 35.2 °F - 24.8 °F 66% 30.21 in 10.0 mi Calm Calm - N/A   Clear
4:55 AM 33.6 °F - 25.2 °F 71% 30.21 in 10.0 mi Calm Calm - N/A   Clear
5:15 AM 34.7 °F 31.8 °F 25.2 °F 68% 30.21 in 10.0 mi NW 3.5 mph - N/A   Clear
5:35 AM 34.2 °F - 25.3 °F 70% 30.21 in 10.0 mi Calm Calm - N/A   Clear
5:55 AM 33.1 °F - 25.2 °F 73% 30.21 in 10.0 mi Calm Calm - N/A   Clear
6:15 AM 30.0 °F - 26.4 °F 86% 30.21 in 10.0 mi Calm Calm - N/A   Clear
6:35 AM 32.4 °F - 25.5 °F 76% 30.22 in 10.0 mi Calm Calm - N/A   Clear
6:55 AM 33.1 °F - 25.2 °F 73% 30.23 in 10.0 mi Calm Calm - N/A   Clear
7:15 AM 33.1 °F - 25.3 °F 73% 30.23 in 10.0 mi Calm Calm - N/A   Clear
7:35 AM 33.8 °F - 25.7 °F 72% 30.24 in 10.0 mi Calm Calm - N/A   Clear
7:55 AM 35.2 °F 32.4 °F 26.4 °F 70% 30.24 in 10.0 mi WNW 3.5 mph - N/A   Clear
8:15 AM 37.0 °F 33.3 °F 27.5 °F 68% 30.24 in 10.0 mi WNW 4.6 mph - N/A   Clear
8:35 AM 39.2 °F 34.2 °F 28.0 °F 64% 30.25 in 10.0 mi WNW 6.9 mph - N/A   Clear
8:55 AM 41.2 °F 35.0 °F 28.6 °F 61% 30.25 in 10.0 mi NW 10.4 mph - N/A   Clear
9:15 AM 42.4 °F 37.0 °F 28.0 °F 57% 30.25 in 10.0 mi NW 9.2 mph - N/A   Clear
9:35 AM 43.9 °F 38.8 °F 27.1 °F 52% 30.25 in 10.0 mi NW 9.2 mph 18.4 mph N/A   Clear
9:55 AM 45.5 °F 39.6 °F 26.1 °F 47% 30.25 in 10.0 mi NW 12.7 mph 17.3 mph N/A   Clear
10:15 AM 46.2 °F 40.8 °F 25.5 °F 44% 30.25 in 10.0 mi NNW 11.5 mph - N/A   Clear
10:35 AM 46.9 °F - 23.7 °F 40% 30.25 in 10.0 mi NNW 11.5 mph 17.3 mph N/A   Clear
10:55 AM 47.7 °F - 23.5 °F 39% 30.25 in 10.0 mi NW 12.7 mph 17.3 mph N/A   Clear
11:15 AM 48.0 °F - 22.8 °F 37% 30.25 in 10.0 mi NW 11.5 mph 17.3 mph N/A   Clear
11:35 AM 48.9 °F - 22.5 °F 35% 30.24 in 10.0 mi NW 6.9 mph - N/A   Clear
11:55 AM 49.6 °F - 21.9 °F 34% 30.24 in 10.0 mi WNW 13.8 mph 17.3 mph N/A   Scattered Clouds
12:15 PM 50.2 °F - 22.5 °F 34% 30.23 in 10.0 mi West 10.4 mph 21.9 mph N/A   Scattered Clouds
12:35 PM 50.2 °F - 22.3 °F 34% 30.22 in 10.0 mi WNW 9.2 mph - N/A   Scattered Clouds
12:55 PM 50.9 °F - 22.1 °F 32% 30.22 in 10.0 mi WNW 15.0 mph 23.0 mph N/A   Scattered Clouds
1:15 PM 52.0 °F - 22.8 °F 32% 30.21 in 10.0 mi West 9.2 mph 18.4 mph N/A   Clear
1:35 PM 52.2 °F - 22.6 °F 32% 30.21 in 10.0 mi NW 11.5 mph 20.7 mph N/A   Clear
1:55 PM 52.2 °F - 22.5 °F 31% 30.20 in 10.0 mi West 9.2 mph 18.4 mph N/A   Clear
2:15 PM 53.1 °F - 21.7 °F 29% 30.19 in 10.0 mi NNW 10.4 mph 19.6 mph N/A   Clear
2:35 PM 53.8 °F - 21.6 °F 28% 30.19 in 10.0 mi WNW 11.5 mph 19.6 mph N/A   Clear
2:55 PM 54.5 °F - 21.6 °F 28% 30.18 in 10.0 mi West 11.5 mph 19.6 mph N/A   Clear
3:15 PM 54.1 °F - 21.9 °F 29% 30.18 in 10.0 mi West 15.0 mph 21.9 mph N/A   Scattered Clouds
3:35 PM 54.5 °F - 21.7 °F 28% 30.16 in 10.0 mi West 11.5 mph 17.3 mph N/A   Scattered Clouds
3:55 PM 55.4 °F - 23.0 °F 29% 30.16 in 10.0 mi NW 11.5 mph 16.1 mph N/A   Scattered Clouds
4:15 PM 55.0 °F - 21.9 °F 28% 30.16 in 10.0 mi NW 11.5 mph 20.7 mph N/A   Scattered Clouds
4:35 PM 55.4 °F - 22.1 °F 27% 30.16 in 10.0 mi WNW 12.7 mph 18.4 mph N/A   Scattered Clouds
4:55 PM 55.4 °F - 21.9 °F 27% 30.16 in 10.0 mi NW 9.2 mph 20.7 mph N/A   Clear
5:15 PM 55.4 °F - 21.9 °F 27% 30.16 in 10.0 mi WNW 9.2 mph 19.6 mph N/A   Scattered Clouds
5:35 PM 55.2 °F - 22.3 °F 28% 30.17 in 10.0 mi WNW 9.2 mph 19.6 mph N/A   Scattered Clouds
5:55 PM 54.9 °F - 22.3 °F 28% 30.17 in 10.0 mi WNW 5.8 mph - N/A   Scattered Clouds
6:15 PM 54.0 °F - 22.3 °F 29% 30.17 in 10.0 mi WNW 10.4 mph 16.1 mph N/A   Mostly Cloudy
6:35 PM 54.3 °F - 21.9 °F 28% 30.17 in 10.0 mi NNW 4.6 mph - N/A   Scattered Clouds
6:55 PM 54.3 °F - 22.8 °F 29% 30.18 in 10.0 mi WNW 8.1 mph - N/A   Mostly Cloudy
7:15 PM 53.1 °F - 22.5 °F 30% 30.18 in 10.0 mi WNW 5.8 mph - N/A   Scattered Clouds
7:35 PM 51.8 °F - 22.5 °F 32% 30.19 in 10.0 mi WNW 4.6 mph - N/A   Clear
7:55 PM 50.4 °F - 22.3 °F 33% 30.20 in 10.0 mi Calm Calm - N/A   Clear
8:15 PM 43.5 °F - 30.0 °F 59% 30.21 in 10.0 mi Calm Calm - N/A   Clear
8:35 PM 41.2 °F - 30.7 °F 66% 30.22 in 10.0 mi Calm Calm - N/A   Clear
8:55 PM 39.9 °F - 30.2 °F 68% 30.23 in 10.0 mi Calm Calm - N/A   Clear
9:15 PM 38.3 °F - 30.4 °F 73% 30.24 in 10.0 mi Calm Calm - N/A   Clear
9:35 PM 37.4 °F - 30.4 °F 76% 30.24 in 10.0 mi Calm Calm - N/A   Scattered Clouds
9:55 PM 36.7 °F - 30.0 °F 77% 30.25 in 10.0 mi Calm Calm - N/A   Clear
10:15 PM 35.8 °F - 30.0 °F 80% 30.26 in 10.0 mi Calm Calm - N/A   Clear
10:35 PM 35.6 °F - 30.0 °F 80% 30.26 in 10.0 mi Calm Calm - N/A   Clear
10:55 PM 35.1 °F - 30.2 °F 82% 30.27 in 10.0 mi Calm Calm - N/A   Clear
11:15 PM 34.7 °F - 29.3 °F 81% 30.28 in 10.0 mi Calm Calm - N/A   Clear
11:35 PM 39.4 °F - 27.9 °F 63% 30.28 in 10.0 mi Calm Calm - N/A   Clear
11:55 PM 43.5 °F 40.9 °F 26.8 °F 52% 30.28 in 10.0 mi NNW 4.6 mph - N/A   Clear